692  
ASUS44 KLUB 220110  
RWRLUB  
WEST TEXAS WEATHER ROUNDUP  
NATIONAL WEATHER SERVICE LUBBOCK TX  
700 PM CST FRI FEB 21 2020  
 
NOTE: "FAIR" INDICATES FEW OR NO CLOUDS BELOW 12,000 FEET WITH NO  
SIGNIFICANT WEATHER AND/OR S TO VISIBILITY
.  
 
TXZ004-006>008-010-012-014-016-OKZ002-220200-  
TEXAS PANHANDLE/OKLAHOMA PANHANDLE  
 
CITY SKY/WX TMP DP RH WIND PRES REMARKS
 
AMARILLO CLEAR 46 27 47 S15 30.26F  
BORGER CLEAR 52 27 38 S14G21 30.26F  
CANADIAN CLEAR 46 29 51 S10 30.31S  
DALHART MOCLDY 45 29 53 S13 30.23S  
DUMAS CLEAR 45 28 52 S13 30.24S  
GUYMON CLEAR 45 29 53 S8 30.21S  
HEREFORD CLEAR 48 30 49 SW14 30.27F  
PAMPA CLEAR 47 28 46 S12 30.29F  
PERRYTON CLEAR 44 28 52 S12 30.25S  

 
 
TXZ026-029-035-045-048-220200-  
SOUTHERN PANHANDLE/SOUTH PLAINS/ROLLING PLAINS  
 
CITY SKY/WX TMP DP RH WIND PRES REMARKS
 
CHILDRESS CLEAR 47 26 44 S13 30.37R  
SEMINOLE CLOUDY 45 30 55 S9 30.39S  
LUBBOCK MOCLDY 46 26 45 S13 30.32F  
PLAINVIEW CLEAR 45 25 45 S12G17 30.31F  
SNYDER CLEAR 46 31 56 SE6 30.39F  

 
 
TXZ052-054-060>062-072-078-127-140-154-169-220200-  
PERMIAN BASIN/CONCHO VALLEY/BIG COUNTRY/EDWARDS PLATEAU  
 
CITY SKY/WX TMP DP RH WIND PRES REMARKS
 
ABILENE CLEAR 47 28 47 S7 30.42F  
BIG SPRING CLOUDY 48 33 57 S8 30.37  
BRADY MOCLDY 46 27 46 E5 30.44  
JUNCTION CLOUDY 51 34 52 E6 30.44F  
MIDLAND MOCLDY 47 31 53 S12 30.36F  
ODESSA CLEAR 44 31 60 S9 30.36F  
SAN ANGELO CLEAR 47 33 58 NE5 30.42S  
SONORA CLOUDY 52 28 40 S7 30.46F  
SWEETWATER CLEAR 46 30 54 SE3 30.43S  
WINK CLEAR 45 32 60 S6 30.37R  

 
 
TXZ055-058-074-075-080-082-220200-  
FAR WEST/SOUTHWEST MOUNTAINS/TRANS PECOS  
 
CITY SKY/WX TMP DP RH WIND PRES REMARKS
 
ALPINE CLEAR 45 36 71 E6 30.39F  
DRYDEN N/A 47 31 53 E8 30.36F  
EL PASO CLOUDY 50 33 52 N6 30.30S  
FORT STOCKTON CLEAR 46 34 62 SE7 30.38R  
GUADALUPE PASS MOCLDY 37 30 75 SW13 30.32F WCI 29  
MARFA CLEAR 44 35 70 S6 30.36S  
PECOS CLEAR 46 33 61 E6 30.37S  
PRESIDIO FAIR 52 35 52 NE6 30.36R  

 
 
TXZ014-016-019-021>030-083-220200  
TEXAS TECH WEST TEXAS MESONET/TEXAS PANHANDLE/NORTHERN SOUTH PLAINS  
 
CITY SKY/WX TMP DP RH WIND PRES REMARKS
 
ABERNATHY 5ENE N/A 45 26 48 S8 30.33F  
AMARILLO 9NNE N/A 48 28 45 S12 30.27S  
AMARILLO 7SSE N/A 45 26 47 S10 30.28F  
AMHERST 1NE N/A 46 28 49 S12 30.31S  
BOOTLEG 11WNW N/A 42 29 59 SW20 30.29S  
CANADIAN 6E N/A 42 27 55 SE10 30.29S  
CAPROCK CYN SP N/A 47 26 44 S10 30.34S  
CHILDRESS 2NNE N/A 46 26 45 S13 30.36S  
CLARENDON 2WSW N/A 46 28 50 S8 30.32S  
CLAUDE 12SW N/A 46 25 44 S13 30.28F  
DIMMITT 2NE N/A 45 28 52 S13 30.29S  
FLOYDADA 2NNE N/A 46 24 43 S14 30.33F  
FRIONA 2NE N/A 44 29 57 S13 30.29S  
GOODLETT 3W N/A 45 26 47 SE12 30.38R  
HART 3N N/A 45 28 50 S10 30.30S  
HEREFORD 2NW N/A 46 29 52 S10 30.27F  
MCLEAN 1E N/A 44 28 51 S10 30.30S  
MEMPHIS 1NE N/A 48 27 44 S8 30.35S  
MULESHOE 2SSW N/A 46 30 54 S13 30.30S  
OLTON 6S N/A 45 27 48 S12 30.32F  
PALO DURO SP N/A 47 26 43 S12 30.29F  
PAMPA 2E N/A 46 28 49 S10 30.29S  
PLAINVIEW 1S N/A 46 27 48 S12 30.31F  
SILVERTON 7ESE N/A 45 25 46 S9 30.31F  
TULIA 2ENE N/A 45 26 46 S12 30.30F  
TURKEY 2WSW N/A 47 27 45 SE14 30.33F  
UMBARGER 3NNE N/A 45 29 52 S10 30.28S  

 
 
TXZ033>036-039>041-045>048-220200  
TEXAS TECH WEST TEXAS MESONET/SOUTH PLAINS  
 
CITY SKY/WX TMP DP RH WIND PRES REMARKS
 
AIKEN 3WSW N/A 46 26 45 S13 30.33F  
ANDREWS 2NE N/A 44 31 58 S8 30.37R  
ANTON 6SSW N/A 46 28 49 S13 30.31F  
BROWNFIELD 2S N/A 45 30 55 S10 30.35R  
DENVR CTY 7WNW N/A 42 29 58 S12 30.34R  
GAIL 2ESE N/A 47 29 50 S5 30.37F  
LAMESA 2SE N/A 45 31 57 S9 30.37S  
LUBBOCK 3WNW N/A 46 27 48 S12 30.33F  
MORTON 1ENE N/A 45 28 50 S14 30.32S  
ODONNELL 1N N/A 45 29 54 S8 30.36S  
PLAINS 3N N/A 44 30 59 S12 30.34R  
RALLS 1SE N/A 44 25 46 S8 30.35F  
REESE CENTER N/A 46 27 48 S13 30.33F  
SEAGRAVES 1SW N/A 46 31 56 S13 30.35R  
SEMINOLE 2NNE N/A 45 29 53 S13 30.35S  
SLATON 2NE N/A 45 27 50 S10 30.34F  
SNYDER 3E N/A 45 32 60 SE8 30.38F  
SUNDOWN 8SW N/A 44 28 52 S10 30.33S  
TAHOKA 3NNE N/A 44 28 53 S13 30.36S  
WOLFFORTH 6SSW N/A 45 28 52 S12 30.34S  

 
 
TXZ031-032-036>038-042>044-220200-  
TEXAS TECH WEST TEXAS MESONET/ROLLING PLAINS  
 
CITY SKY/WX TMP DP RH WIND PRES REMARKS
 
ASPERMONT 3NE N/A 45 30 55 SE5 30.41S  
FLUVANNA 3WNW N/A 46 29 52 S8 30.37F  
GRAHAM 5SSW N/A 45 28 50 S9 30.36F  
GUTHRIE 10WSW N/A 45 26 48 S8 30.39R  
HASKELL 1NW N/A 46 28 49 SE5 30.40F  
JAYTON 1SSE N/A 46 29 51 S5 30.40R  
KNOX CITY 3NW N/A 44 31 60 S6 30.42S  
LK A HENRY 1NW N/A 46 30 54 S3 30.39S  
NORTHFIELD 1S N/A 47 26 45 S10 30.36S  
ODELL 4ENE N/A 45 26 47 S10 30.42S  
PADUCAH 10SW N/A 45 27 50 S8 30.38S  
POST 1NE N/A 46 27 46 S7 30.36F  
RRING SPRGS 3N N/A 45 29 53 S10 30.36S  
SEYMOUR 3NW N/A 42 29 60 SE6 30.42F  
SPUR 1W N/A 45 29 53 S5 30.37S  
WEINERT 2NNE N/A 45 27 49 S6 30.42F  
WHITE RVR 6NE N/A 45 28 52 S10 30.36F  

 
 
TXZ052-054-060>062-072-078-127-140-154-169-220200-  
TEXAS TECH WEST TEXAS MESONET/PERMIAN BASIN/  
CONCHO VALLEY/BIG COUNTRY/EDWARDS PLATEAU  
 
CITY SKY/WX TMP DP RH WIND PRES REMARKS
 
COYANOSA 2N N/A 46 34 64 E6 30.39R  
JUNCTION 1SSW N/A 49 37 63 E1 30.45R  
MERTZON 3NNE N/A 44 32 62 E2 30.43S  
SAN ANGELO 7NW N/A 45 31 59 E6 30.43S  
STRLNG CT 4WSW N/A 47 30 50 E8 30.41F  
ST LAWRNCE 5SW N/A 47 36 64 SE8 30.37F  
SWEETWATR 11SW N/A 44 30 57 SE7 30.41F  
WALL 1E N/A 45 36 70 E7 30.44S  

 
 
TXZ055-058-074-075-080-082-220200-  
TEXAS TECH WEST TEXAS MESONET/FAR WEST/SOUTHWEST MOUNTAINS/TRANS PECOS  
 
CITY SKY/WX TMP DP RH WIND PRES REMARKS
 
PRSMN GAP BBNP N/A 46 33 59 NE15 30.37S  
GUADLPE MTN NP N/A 36 31 81 NE2 30.33R  

 
 
 
CLICK HERE TO GO TO PREVIOUS BULLETINS.

The Nexlab TX Page Main Text Page